Santa Marta, Colombia

4:25 AM -05 on July 21, 2017 (GMT -0500)
Simon Bolivar

Weather History for SKSM - November, 2012

Change the Weather History Date:

Wednesday, November 21, 2012

  Actual Average Record
Temperature  
Mean Temperature 83 °F -  
Max Temperature 91 °F 90 °F 91 °F (1997)
Min Temperature 75 °F 72 °F 74 °F (2015)
Cooling Degree Days 18    
Growing Degree Days 33 (Base 50)    
Moisture  
Dew Point 75 °F    
Average Humidity 70    
Maximum Humidity 83    
Minimum Humidity 56    
Precipitation  
Precipitation 0.00 in 0.03 in - ()
Sea Level Pressure  
Sea Level Pressure 29.76 in    
Wind  
Wind Speed 2 mph ()    
Max Wind Speed 9 mph    
Max Gust Speed -    
Visibility 6.2 miles    
Events      
Averages and records for this station are not official NWS values.
T = Trace of Precipitation, MM = Missing Value Source: Averaged Metar Reports

Daily Weather History Graph

Daily Weather History Graph

Search for Another Location

Airport or City:

Trip Planner

Search our weather history database for the weather conditions in past years. The results will help you decide how hot, cold, wet, or windy it might be!

Date:

Astronomy

Nov. 21, 2012 Rise Set
Actual Time 5:55 AM -05 5:30 PM -05
Civil Twilight 5:33 AM -05 5:52 PM -05
Nautical Twilight 5:07 AM -05 6:18 PM -05
Astronomical Twilight 4:41 AM -05 6:44 PM -05
Moon 12:46 PM -05 12:17 AM -05
Length of Visible Light 12h 19m
Length of Day
11h 34m
First Quarter, 61% of the Moon is Illuminated
Nov 21
First Quarter
Nov 28
Full
Dec 6
Last Quarter
Dec 13
New
Dec 20
First Quarter

Hourly Weather History & Observations

Time (-05) Temp. Heat Index Dew Point Humidity Pressure Visibility Wind Dir Wind Speed Gust Speed Precip Events Conditions
6:00 AM 75.2 °F - 69.8 °F 83% 29.74 in 6.2 mi Calm Calm - N/A   Scattered Clouds
7:00 AM 78 °F - 72 °F 78% 29.77 in 6 mi Calm Calm - -   Haze
7:00 AM 78.8 °F - 71.6 °F 78% 29.77 in 6.2 mi Calm Calm - N/A   Scattered Clouds
8:00 AM 82.4 °F 88.2 °F 73.4 °F 74% 29.80 in 6.2 mi Calm Calm - N/A   Scattered Clouds
9:00 AM 84.2 °F 92.3 °F 75.2 °F 74% 29.80 in 6.2 mi Calm Calm - N/A   Scattered Clouds
10:00 AM 87 °F - 76 °F 63% 29.82 in 6 mi WSW 4.5 mph - -   Haze
10:00 AM 86.0 °F 96.9 °F 77.0 °F 74% 29.80 in 6.2 mi WSW 4.6 mph - N/A   Scattered Clouds
11:00 AM 87.8 °F 99.7 °F 77.0 °F 70% 29.77 in 6.2 mi WSW 6.9 mph - N/A   Mostly Cloudy
12:00 PM 89.6 °F 102.2 °F 77.0 °F 66% 29.77 in 6.2 mi WSW 6.9 mph - N/A   Mostly Cloudy
1:00 PM 90 °F - 76 °F 56% 29.76 in 6 mi WSW 4.5 mph - -   Haze
1:00 PM 89.6 °F 102.2 °F 77.0 °F 66% 29.74 in 6.2 mi WSW 4.6 mph - N/A   Mostly Cloudy
2:00 PM 89.6 °F 102.2 °F 77.0 °F 66% 29.71 in 6.2 mi WSW 4.6 mph - N/A   Mostly Cloudy
3:00 PM 89.6 °F 104.7 °F 78.8 °F 70% 29.71 in 6.2 mi Calm Calm - N/A   Mostly Cloudy
4:00 PM 87 °F - 75 °F 59% 29.73 in 6 mi Calm Calm - -   Haze
4:00 PM 87.8 °F 97.6 °F 75.2 °F 66% 29.71 in 6.2 mi Calm Calm - N/A   Mostly Cloudy
5:00 PM 87.8 °F 97.6 °F 75.2 °F 66% 29.74 in 6.2 mi Calm Calm - N/A   Overcast
7:00 PM 83 °F - 75 °F 71% 29.76 in 6 mi NNE 6.7 mph - -   Haze
7:00 PM 84.2 °F 92.3 °F 75.2 °F 74% 29.74 in 6.2 mi NNE 6.9 mph - N/A   Overcast
8:00 PM 84.2 °F 92.3 °F 75.2 °F 74% 29.77 in 6.2 mi NE 6.9 mph - N/A   Overcast
9:00 PM 84.2 °F 92.3 °F 75.2 °F 74% 29.77 in 6.2 mi NNE 9.2 mph - N/A   Overcast
10:00 PM 84.2 °F 92.3 °F 75.2 °F 74% 29.80 in 6.2 mi Calm Calm - N/A   Overcast